GFSSW_500_rhum_096.txt.gz
RH
22 20 18 17 15 12 14 14 14 16 18 20 18 20 24 41 47 40 33 31 28 33 34 29 26 25 25 25 26 17 22 37 41 37 36 29 25 20 11 7 11 14 11 22 26
21 20 19 14 12 13 11 12 12 15 15 18 25 28 27 32 49 59 46 36 33 30 35 33 29 26 26 29 29 19 15 27 40 37 37 34 27 22 13 10 10 24 29 38 32
23 19 18 16 13 11 10 8 7 9 10 10 12 18 20 23 37 65 63 50 38 34 40 38 31 30 27 31 31 22 20 18 38 37 34 31 31 24 16 13 17 22 31 36 26
21 16 14 14 9 7 6 5 5 5 5 5 5 8 12 15 32 51 61 67 53 39 40 46 37 34 31 34 34 20 23 25 32 39 32 26 35 28 18 15 26 26 23 26 20
18 16 12 10 8 7 6 5 4 4 5 4 4 8 13 14 40 41 50 62 73 54 43 47 43 37 37 39 42 30 22 25 30 46 36 25 40 31 21 19 20 21 17 29 29
17 15 13 10 8 6 5 5 4 4 4 3 4 6 10 22 47 59 57 73 70 77 50 56 53 44 38 39 39 38 30 25 32 34 33 29 43 33 24 20 14 20 14 20 23
16 14 11 8 8 6 7 6 4 4 4 4 5 7 12 39 49 69 70 73 84 85 68 56 61 46 40 44 38 36 37 29 32 39 25 32 43 36 26 20 15 18 17 21 26
15 12 10 9 8 8 7 6 6 7 8 10 11 12 17 36 49 63 76 92 86 95 88 75 64 54 40 43 41 38 38 37 38 50 21 33 44 35 30 22 16 19 23 20 24
18 14 14 12 12 11 12 11 12 13 14 15 17 19 23 36 54 71 82 97 95 100 98 96 77 62 48 47 49 35 37 43 57 52 23 26 43 48 39 23 23 19 25 25 25
22 21 19 18 17 17 19 18 18 18 18 18 21 26 31 39 53 65 76 84 100 98 99 95 85 72 59 54 43 55 46 64 63 56 45 22 33 53 41 28 26 18 25 29 32
27 26 24 23 23 23 24 24 21 21 21 19 17 16 30 47 60 68 72 84 100 97 98 98 94 64 67 66 79 67 53 52 58 68 41 40 23 38 41 39 29 22 20 27 31
31 31 31 31 29 28 27 26 26 23 22 21 19 17 15 20 42 41 50 68 90 100 96 92 82 68 61 71 68 58 47 45 61 70 41 45 30 26 40 48 43 24 18 24 29
38 35 38 36 34 31 26 25 27 27 27 25 23 20 15 14 14 30 34 32 57 97 99 93 96 60 54 59 60 54 47 58 62 81 51 31 28 29 39 46 36 21 17 25 27
45 45 43 41 36 31 28 27 27 27 28 27 24 22 20 15 13 12 20 22 23 39 97 93 97 92 51 53 52 51 59 66 66 70 47 42 31 30 42 50 48 24 16 24 26
50 55 52 49 44 40 36 33 29 27 29 26 24 20 17 14 12 11 11 17 20 17 44 91 100 98 86 52 61 53 63 61 68 67 54 50 33 29 47 58 33 20 20 26 28
57 61 61 59 55 46 40 36 34 35 33 31 26 22 19 13 10 9 9 10 14 15 16 50 97 95 98 73 52 46 65 84 74 75 51 52 39 36 44 73 49 25 19 28 30
47 52 59 65 62 57 49 46 45 42 34 31 25 18 13 11 8 7 7 8 9 19 13 27 67 91 99 97 97 87 86 92 95 77 61 52 43 44 40 70 63 31 20 27 35
13 19 26 36 46 50 51 49 44 34 30 27 22 17 13 10 8 7 7 8 8 10 13 10 32 91 62 82 54 99 99 94 73 80 74 50 40 38 44 57 74 29 24 24 36
6 6 6 9 12 19 24 25 25 23 22 19 15 10 8 8 7 7 6 7 8 9 12 9 11 28 92 73 79 39 90 93 95 74 68 57 45 48 49 59 74 46 25 32 33
6 6 5 5 7 7 8 8 8 8 7 6 5 6 6 6 6 6 6 6 7 9 9 15 8 9 28 88 47 79 38 78 92 84 81 65 65 59 58 51 62 68 43 25 25
8 6 6 6 6 7 6 6 6 6 5 4 4 4 3 4 4 6 7 6 7 7 9 10 11 11 11 20 36 30 56 80 92 81 74 76 96 64 61 58 68 63 67 30 33
9 7 8 8 8 7 6 8 8 8 8 7 6 6 6 5 4 5 5 5 6 7 7 8 10 9 10 13 22 28 32 22 22 55 68 74 72 81 80 62 67 72 69 43 39
9 8 8 8 8 8 10 11 11 11 10 9 5 4 6 7 7 6 5 5 5 6 6 7 9 9 8 12 16 19 44 41 29 21 24 38 70 65 74 64 71 81 65 40 66
8 9 10 11 13 14 13 13 13 9 7 6 5 3 4 7 10 6 7 6 5 4 4 5 6 11 16 71 35 15 10 15 30 35 30 27 29 37 54 73 70 97 91 46 63
8 8 12 15 19 18 16 15 10 5 5 5 4 6 8 11 14 11 9 7 5 4 4 4 4 6 7 9 13 26 24 17 9 12 22 32 32 31 35 68 80 97 99 82 76
8 7 15 23 19 13 8 7 6 28 34 41 30 20 14 15 14 12 8 7 5 4 4 4 4 4 5 5 6 7 8 21 14 8 6 9 19 48 56 60 67 81 96 91 88
10 18 24 14 15 9 8 23 85 86 55 37 20 15 14 46 71 34 8 6 4 4 4 3 3 4 4 4 4 4 4 5 7 11 9 8 8 11 29 42 52 69 95 91 95

GFSSW_500_rhum_102.txt.gz
RH
28 29 29 26 22 20 20 20 19 18 14 13 10 9 8 9 12 9 6 6 4 7 5 7 9 15 17 27 24 21 21 29 24 26 50 64 29 13 11 28 33 31 21 12 8
35 31 29 26 23 22 19 18 18 16 14 12 11 10 9 10 9 6 5 4 4 4 6 7 12 14 11 25 24 23 22 29 29 28 41 22 17 19 13 17 34 32 22 16 10
37 35 33 32 31 28 24 22 20 19 17 15 13 11 10 8 8 4 6 5 5 6 7 6 7 11 7 28 36 33 23 35 33 29 30 22 18 21 15 18 41 31 27 18 11
52 47 42 37 33 30 29 27 24 20 16 14 11 11 8 5 6 4 4 4 4 3 4 6 6 6 7 17 47 38 37 35 40 32 29 28 21 13 20 19 39 34 28 19 11
54 55 53 51 47 40 31 28 26 22 18 15 12 9 8 7 5 4 3 3 3 3 3 6 9 12 12 17 44 57 50 42 44 40 30 33 26 16 16 20 27 35 30 22 12
62 55 55 56 51 45 36 30 26 22 19 16 13 11 8 5 4 3 3 2 3 3 4 5 7 7 7 14 27 60 60 54 49 43 34 33 35 22 18 22 17 37 32 25 13
75 67 67 60 53 46 38 32 26 21 16 13 12 8 5 5 4 3 3 4 5 6 7 8 7 6 13 14 34 61 76 74 62 51 40 43 38 27 24 25 20 35 32 27 14
87 82 81 88 70 54 46 35 27 22 16 13 10 8 6 5 5 4 6 8 7 6 6 11 8 8 11 26 39 75 87 81 75 63 48 56 40 34 34 34 16 36 40 33 16
95 92 82 76 77 63 56 44 31 21 19 16 12 8 6 7 9 8 8 8 8 8 7 8 8 8 15 41 57 73 76 88 90 75 71 77 64 39 46 46 19 32 42 40 24
94 92 87 80 74 69 64 54 34 25 20 17 12 10 10 10 11 11 9 8 10 9 10 9 8 11 18 45 41 80 90 80 78 89 97 98 92 49 57 52 30 26 28 42 36
100 97 98 87 80 72 64 50 40 30 24 21 18 14 14 10 9 14 12 9 16 11 12 13 9 10 34 51 59 81 93 68 77 92 86 98 98 68 52 55 29 35 46 48 45
92 97 98 89 80 64 49 39 35 30 24 23 21 16 12 15 11 15 15 14 16 14 14 15 5 13 26 32 40 54 65 64 71 97 98 96 98 72 56 54 31 33 38 52 83
98 100 95 86 72 57 47 42 38 33 25 21 19 13 13 15 15 16 19 19 18 13 15 14 9 12 13 22 29 35 73 72 81 99 93 87 92 56 53 48 38 37 39 48 53
96 93 83 64 63 48 42 41 34 33 25 18 15 15 19 19 18 18 18 18 18 15 18 12 12 14 14 14 22 30 57 95 92 96 92 98 77 59 62 59 50 40 34 42 45
88 89 86 85 67 45 34 27 23 23 29 28 26 24 18 17 19 15 15 16 17 15 16 6 12 14 14 14 16 23 40 75 96 91 94 80 100 47 68 66 54 51 49 35 44
64 61 44 34 37 40 24 19 19 26 23 29 27 15 14 16 18 29 13 13 12 10 13 8 13 14 13 12 13 27 44 61 100 100 84 79 91 64 66 58 55 80 62 60 45
51 34 20 15 13 15 13 13 12 13 17 25 36 14 8 13 15 15 14 12 8 14 11 11 13 14 10 10 11 17 22 60 95 97 64 86 90 72 65 60 56 80 99 63 61
4 7 6 6 7 8 9 10 10 9 9 12 33 37 9 8 25 12 20 10 17 38 23 11 16 90 51 15 12 17 23 46 89 96 100 95 79 79 91 82 63 97 98 58 43
4 3 3 4 5 8 9 10 7 8 8 10 90 14 7 6 18 27 26 12 18 48 67 36 48 97 97 65 31 20 26 44 97 100 96 98 89 95 96 98 91 87 90 58 54
11 10 6 7 7 9 13 8 8 10 11 11 8 29 14 7 16 64 15 14 97 25 73 94 72 65 100 91 24 18 39 82 100 97 95 93 97 98 96 88 96 96 81 65 57
23 20 17 11 13 12 8 9 13 14 12 11 8 8 8 7 7 47 68 66 97 80 38 31 32 15 29 99 30 29 31 44 95 99 89 96 94 98 96 97 99 97 94 94 74
24 21 25 37 56 29 11 11 14 14 13 10 8 7 7 6 6 7 8 34 80 62 21 8 12 10 20 73 100 84 88 83 100 91 96 100 82 98 94 90 94 98 98 98 82
27 19 27 98 99 99 47 15 15 15 13 11 8 10 9 8 8 7 7 7 7 12 6 7 7 11 9 17 86 96 96 92 67 96 92 100 84 97 98 98 97 99 98 96 87
24 24 64 92 100 100 100 33 18 16 13 11 12 12 12 11 10 8 7 7 6 6 5 4 3 26 96 77 55 57 74 69 87 96 77 84 85 99 99 98 97 99 98 97 99
32 54 92 99 95 100 100 100 99 98 30 21 18 16 17 15 13 11 10 9 8 5 4 4 4 4 5 28 98 100 80 47 42 73 100 100 86 98 98 96 97 83 89 96 98
53 87 99 88 100 100 84 41 60 100 98 80 28 22 18 16 15 13 13 19 62 85 88 17 6 4 4 4 41 100 100 100 58 30 34 64 85 94 99 82 90 100 91 74 74
100 100 100 99 100 100 100 96 47 35 82 49 52 56 82 50 24 14 10 8 27 68 73 50 84 26 12 14 9 51 83 99 97 85 50 28 22 32 79 89 62 50 72 63 44

GFSSW_500_rhum_105.txt.gz
RH
38 36 36 31 29 29 28 26 25 24 21 20 20 15 14 12 11 7 7 9 7 6 4 3 3 3 4 8 6 11 6 4 26 22 28 26 64 71 29 15 9 13 13 18 14
46 39 38 37 37 34 32 31 26 23 21 18 17 15 13 13 12 9 8 10 7 6 5 3 3 4 4 5 9 9 5 9 27 29 28 27 31 44 45 20 10 12 7 9 11
48 49 40 38 37 35 34 33 32 30 27 23 21 19 17 16 14 12 11 9 7 5 4 4 4 2 3 3 9 11 3 5 14 30 35 34 31 27 32 35 30 20 14 9 12
59 55 51 50 46 46 46 45 42 38 31 28 26 24 20 15 13 11 10 7 6 5 4 3 2 2 2 2 4 4 3 3 5 22 38 38 35 32 28 33 36 31 24 19 13
66 60 59 61 54 51 49 47 47 49 45 36 30 27 23 18 15 13 9 8 6 4 3 2 3 4 6 5 4 5 4 3 3 5 22 48 42 37 33 34 37 34 24 23 15
71 68 70 65 70 66 61 53 53 51 45 39 33 28 24 19 18 14 12 8 4 3 2 3 6 7 7 4 5 5 4 3 2 2 5 48 52 44 37 38 47 38 28 22 16
88 82 76 79 77 71 67 63 62 61 53 44 38 31 26 18 15 12 8 6 4 4 3 6 8 8 6 4 4 3 3 2 2 3 8 83 62 56 49 49 54 45 31 19 16
98 96 95 92 94 90 86 81 77 78 78 57 43 37 27 20 15 11 8 6 5 5 6 8 7 6 5 3 2 2 2 3 5 12 40 99 52 69 68 60 58 53 35 24 16
95 97 94 95 96 96 96 96 91 77 74 83 62 44 28 22 17 13 10 8 8 9 9 7 6 5 4 3 3 3 4 7 4 31 45 97 68 65 66 68 69 54 35 34 27
94 95 98 97 94 94 90 95 90 81 77 73 67 61 43 30 22 16 14 13 12 10 9 8 6 5 4 5 4 10 9 5 5 27 52 65 72 76 76 54 93 66 49 42 24
97 96 96 97 91 94 96 97 90 85 82 72 64 64 48 30 22 20 18 16 13 11 10 10 7 7 8 7 6 5 6 6 5 38 45 70 49 83 94 61 99 97 67 46 27
97 97 97 98 91 98 90 82 97 84 71 68 56 50 39 32 28 22 19 16 14 12 10 8 7 10 8 7 6 6 4 5 11 23 36 55 42 61 95 72 58 90 64 43 34
97 95 98 99 95 99 90 83 94 83 69 62 59 51 43 37 29 23 18 17 15 13 14 11 10 11 8 6 6 7 6 8 13 19 25 49 35 73 96 85 85 86 66 68 47
99 98 98 100 96 98 88 89 96 89 65 50 50 44 39 34 29 25 22 22 19 16 17 11 10 8 7 5 6 4 8 12 12 18 24 52 25 55 98 82 56 72 77 68 44
98 99 99 94 75 73 80 78 71 83 58 54 46 46 45 38 32 28 25 21 16 15 15 10 8 5 4 4 7 7 13 13 12 13 24 36 51 42 96 66 69 71 60 56 36
44 54 57 38 50 74 73 57 41 41 42 41 45 47 42 32 28 20 14 11 10 10 11 5 5 4 4 5 6 11 14 14 13 14 22 32 63 52 82 80 71 66 76 86 46
2 3 3 7 9 14 16 15 28 51 47 33 21 18 15 24 11 15 10 7 7 12 10 8 4 4 9 16 8 13 13 12 13 13 13 40 64 52 61 86 94 83 86 71 60
2 2 2 3 5 4 3 5 11 31 21 13 16 75 35 27 18 14 84 20 10 16 12 6 5 4 31 22 23 22 24 11 12 12 15 35 38 47 93 98 94 98 97 93 82
4 4 4 6 6 7 6 6 2 3 7 11 10 22 67 12 12 28 42 66 68 35 50 33 19 5 42 73 71 65 49 34 20 16 22 28 54 60 92 92 84 89 98 98 86
6 7 10 16 15 17 16 7 4 7 13 17 12 33 100 100 27 52 61 96 100 55 29 36 44 9 30 80 50 76 71 67 36 33 26 43 66 85 86 99 99 100 93 96 96
11 10 25 23 21 20 17 13 11 9 13 23 33 17 86 100 48 15 35 59 75 95 73 89 42 15 64 99 100 95 82 53 37 52 44 60 63 94 99 98 93 83 88 100 83
8 12 26 25 25 23 17 43 22 10 14 18 31 49 30 74 48 32 29 93 100 100 100 60 58 27 46 100 87 52 100 52 76 29 33 76 59 100 100 97 97 98 90 100 92
9 15 34 32 31 26 94 88 72 50 28 26 45 20 19 17 24 16 11 60 100 99 100 70 20 7 4 9 19 27 27 99 41 40 46 80 49 100 92 98 99 81 81 96 97
30 24 36 34 28 23 94 84 92 84 26 40 29 24 16 14 16 11 10 9 41 46 34 10 8 8 5 4 10 25 26 100 100 90 42 67 56 100 96 99 98 82 75 98 79
42 39 36 28 50 72 100 68 100 100 86 41 53 33 27 18 17 15 13 12 11 12 16 13 9 6 4 4 23 16 29 73 100 100 79 100 68 100 99 93 98 99 98 98 98
70 23 37 57 92 100 100 74 100 100 100 100 77 73 34 22 21 18 14 11 9 10 8 7 6 7 4 4 4 13 33 16 82 100 81 65 99 98 99 76 100 99 99 98 96
25 56 46 100 98 100 100 89 89 100 100 84 100 94 88 100 81 54 26 16 13 13 15 15 43 61 9 22 4 4 5 14 17 29 29 30 60 100 99 100 100 91 97 93 79

GFSSW_500_rhum_108.txt.gz
RH
49 54 49 47 41 35 34 33 27 26 26 24 24 22 19 16 16 12 11 10 9 9 8 7 7 5 3 3 3 3 3 4 13 8 26 16 13 14 16 15 15 15 21 20 12
39 41 42 46 46 43 34 35 35 33 30 28 25 21 19 19 16 14 12 12 11 9 9 9 7 5 4 4 4 4 4 4 8 7 13 24 8 10 10 16 20 23 22 22 15
58 52 52 46 45 46 44 37 38 35 32 31 29 28 26 24 23 20 16 15 14 13 11 9 8 5 4 4 4 3 3 4 4 6 7 14 8 14 11 13 24 28 28 27 23
62 59 64 58 57 55 54 50 46 47 45 42 39 40 35 30 27 23 22 18 14 12 10 8 6 5 4 3 3 3 4 6 8 6 4 3 4 4 12 12 24 34 38 32 28
64 68 63 63 68 69 63 58 56 51 48 49 46 41 37 41 36 30 26 20 16 13 10 8 6 4 3 2 3 6 6 6 8 4 3 3 3 3 12 24 33 37 38 46 38
56 55 61 65 66 70 72 68 60 56 55 60 55 49 44 43 35 33 27 22 19 15 12 9 5 4 4 3 6 8 8 7 4 3 3 2 2 4 19 54 61 57 46 57 49
66 64 66 66 76 78 80 82 74 65 66 58 56 56 54 51 42 37 29 25 20 15 11 8 5 3 3 5 7 8 9 7 4 4 4 3 3 5 19 28 38 60 54 57 58
75 73 82 80 88 79 92 93 91 83 80 77 71 58 62 66 60 50 36 22 17 13 9 7 5 4 5 7 7 8 8 8 6 7 5 5 4 5 18 32 46 68 59 46 45
80 84 88 87 85 90 90 97 93 84 79 87 85 81 80 78 84 78 36 25 20 16 11 9 7 6 8 8 8 6 8 7 6 5 5 6 4 4 16 26 68 81 75 56 46
98 98 99 97 91 90 92 97 94 91 87 86 79 83 78 74 68 63 65 60 35 21 14 12 10 9 9 8 9 8 8 8 7 5 5 4 4 2 7 32 60 86 88 70 50
94 96 96 96 91 94 89 100 97 94 82 77 80 84 90 94 87 80 62 78 36 22 18 16 12 12 12 10 9 8 8 9 7 5 4 4 3 2 7 22 34 70 93 74 46
85 95 93 100 93 90 80 96 99 93 83 82 77 70 80 90 74 61 55 48 33 24 20 18 16 14 12 9 9 10 9 8 8 5 4 4 4 2 4 13 48 60 79 85 68
90 96 98 100 95 87 84 92 99 95 76 81 80 68 75 77 65 62 65 72 36 27 21 17 15 16 14 13 12 10 8 5 6 5 4 3 3 3 5 12 32 55 69 85 67
95 97 98 100 95 91 85 100 97 96 76 54 65 65 70 72 71 55 57 53 42 31 24 22 20 18 16 14 12 13 9 7 5 3 3 3 3 2 4 14 29 54 66 85 67
13 8 17 38 50 82 77 88 95 96 72 59 54 50 49 52 54 52 44 40 36 30 28 27 23 20 16 12 9 8 5 4 3 3 2 3 7 2 4 14 51 62 86 99 87
2 2 2 2 2 4 10 10 13 36 49 63 58 53 52 44 42 41 44 40 34 30 26 23 13 10 8 6 6 5 4 3 3 4 5 4 9 2 7 18 56 98 99 97 96
2 2 2 2 2 2 2 2 3 8 17 31 39 43 44 45 39 33 24 24 20 16 13 12 10 8 7 6 5 4 4 4 6 8 4 6 9 3 7 29 58 94 86 80 84
3 3 3 3 3 2 2 2 2 3 4 25 17 39 37 37 38 57 42 34 24 16 12 10 9 7 8 8 5 5 7 9 17 6 6 9 6 6 12 50 61 68 89 64 87
4 4 5 5 5 6 6 4 4 5 7 5 7 38 91 92 61 100 74 47 49 99 75 32 14 9 9 6 12 7 18 23 68 65 55 14 8 9 15 45 65 72 97 97 82
4 4 6 7 8 9 10 11 12 15 16 10 6 10 20 100 100 99 100 100 100 98 100 92 62 12 9 8 34 55 34 52 79 93 62 31 18 13 34 62 81 100 99 82 95
5 6 9 9 10 12 19 20 22 20 17 15 12 12 13 27 89 100 100 100 100 100 100 77 90 29 13 28 20 74 60 96 65 89 76 34 18 40 74 100 99 98 98 84 78
7 9 10 11 12 17 24 29 24 20 21 21 18 16 22 31 79 91 100 100 98 100 100 98 95 40 27 49 31 46 100 100 100 90 67 35 14 80 95 88 94 97 95 90 100
7 9 21 22 25 34 31 31 26 21 40 55 36 35 20 56 80 100 99 98 87 100 88 78 60 19 14 23 80 87 100 100 98 99 85 53 24 30 99 98 97 98 99 98 98
13 20 37 52 46 46 42 31 29 89 77 100 97 86 69 25 32 50 97 90 92 100 100 96 72 27 8 12 40 61 41 69 85 56 63 91 28 29 82 92 100 99 98 95 92
50 72 87 90 83 53 35 29 94 100 92 100 79 100 93 48 30 26 25 64 94 89 70 66 88 60 30 9 8 5 6 12 46 50 32 97 87 58 91 100 98 96 98 91 95
92 93 74 41 30 42 98 100 97 100 99 100 97 73 60 57 36 21 17 15 14 17 15 13 17 32 7 11 8 6 5 5 7 15 21 84 100 100 100 92 86 100 99 99 96
98 91 27 44 52 88 98 100 100 100 98 100 100 100 100 91 82 36 20 15 13 12 15 14 12 11 8 10 18 5 4 4 6 41 15 35 91 100 100 95 100 100 98 99 96

GFSSW_500_rhum_111.txt.gz
RH
52 47 45 41 40 41 41 44 42 37 32 29 30 26 21 22 22 20 19 16 13 13 9 8 8 7 6 6 5 3 3 3 6 11 25 14 9 7 4 3 3 4 5 12 16
51 52 51 47 45 41 40 39 39 42 40 33 31 27 26 27 24 22 18 19 15 14 13 10 9 7 8 7 6 5 4 3 7 6 8 10 4 5 4 4 2 3 6 10 21
56 57 56 55 52 50 50 46 46 45 44 39 33 35 30 28 28 27 24 25 24 19 15 15 13 11 10 9 7 6 4 5 4 5 5 8 6 8 5 3 5 5 7 14 27
52 63 60 56 54 54 52 50 49 48 48 47 45 40 40 42 42 41 32 30 28 26 23 20 16 14 11 9 8 6 4 3 3 4 7 10 8 4 3 3 6 6 6 13 33
31 35 56 67 60 56 55 53 56 55 54 56 54 50 44 43 56 40 41 42 40 32 27 23 18 13 10 8 6 6 4 3 4 6 7 6 4 4 4 8 8 4 4 8 16
43 47 45 45 54 59 60 60 54 57 59 55 55 55 51 52 51 48 47 45 40 36 31 24 19 17 14 10 8 6 4 3 6 7 7 6 4 4 6 10 4 3 3 7 29
47 56 73 74 65 57 59 64 63 61 62 63 56 60 56 80 55 59 56 51 45 40 33 25 20 19 18 12 7 4 3 4 7 8 6 5 8 6 5 6 4 3 3 14 44
68 65 68 66 63 70 68 71 72 65 65 70 67 61 59 88 73 70 62 65 60 51 35 28 24 19 16 10 6 4 4 5 7 7 6 8 10 11 7 5 4 3 3 9 28
68 62 60 63 65 62 61 66 75 81 76 82 78 74 76 93 89 86 84 82 76 66 42 51 46 18 12 9 6 5 5 7 7 8 8 8 10 7 5 4 3 3 2 5 17
67 64 66 66 60 62 70 83 85 80 83 85 82 88 88 94 96 94 92 98 88 82 89 64 36 19 14 11 10 10 8 8 8 8 8 8 11 8 6 5 4 3 2 4 22
66 61 64 70 66 61 75 82 78 79 79 80 80 89 96 97 96 96 98 93 96 84 52 62 82 58 56 16 13 17 11 11 9 8 8 9 11 9 7 8 6 3 2 7 36
62 69 73 79 62 62 67 80 81 76 71 78 79 74 97 93 81 100 96 96 98 97 89 77 67 58 26 17 14 12 12 11 9 10 10 11 13 11 9 6 4 3 3 6 47
63 63 66 75 79 68 73 84 93 87 64 82 97 88 90 97 75 89 90 95 96 98 88 66 59 49 31 18 16 14 12 12 12 12 10 11 16 12 7 5 3 3 3 6 28
51 40 22 14 28 25 28 34 74 92 80 68 91 97 97 98 88 91 98 93 88 90 83 86 67 38 24 20 18 16 16 16 14 13 15 12 16 13 7 5 3 3 3 7 26
2 2 2 2 2 2 3 3 2 7 32 70 75 71 70 78 79 76 79 97 78 82 78 74 75 67 44 34 21 26 20 18 16 15 13 13 8 9 7 3 3 3 4 12 27
3 3 3 2 2 2 2 2 2 2 4 14 28 45 66 66 76 86 78 81 87 85 78 74 52 42 32 25 23 21 18 13 9 7 9 12 8 9 5 4 3 3 10 33 43
3 3 3 3 2 2 2 2 2 2 3 4 6 12 24 53 57 56 59 78 90 87 84 71 66 49 28 26 22 15 11 10 9 7 10 8 6 7 5 3 3 3 14 31 72
4 4 3 3 3 3 3 2 2 2 3 3 3 8 22 19 34 40 43 45 35 56 54 42 39 33 24 16 14 18 15 17 10 6 6 5 6 5 4 4 3 6 12 36 62
4 4 4 4 4 4 4 3 4 5 5 4 3 6 22 19 33 54 55 43 36 34 43 47 64 40 25 20 22 21 20 16 17 11 8 7 5 4 6 6 4 6 16 45 75
5 6 5 5 4 4 6 6 8 15 19 10 6 5 10 78 79 100 100 79 50 48 44 36 33 30 25 26 35 36 30 32 45 48 47 6 4 4 10 14 6 9 16 63 79
6 7 6 5 5 7 8 9 11 23 23 19 16 12 9 21 72 87 100 100 100 99 60 56 46 39 33 31 28 35 31 27 20 82 61 20 6 13 35 21 25 20 44 83 100
7 6 6 6 7 8 9 12 13 19 29 24 20 18 13 15 9 36 91 100 100 100 100 94 89 92 81 81 44 43 42 29 91 100 55 47 43 38 48 32 61 59 72 91 93
6 8 14 17 20 21 20 18 22 24 32 30 22 24 21 20 19 10 20 94 100 100 100 100 100 95 100 85 75 74 48 35 38 66 98 100 65 74 72 31 28 76 89 97 99
10 40 49 56 61 60 61 54 38 38 31 29 28 62 68 46 54 19 18 69 100 100 100 100 100 84 74 82 99 78 48 64 76 53 66 99 73 80 96 56 30 44 98 98 98
35 66 74 80 84 80 68 69 75 49 35 61 72 76 83 98 100 78 21 25 82 100 100 100 75 77 62 83 40 31 57 67 83 75 58 66 80 62 80 85 68 87 99 97 98
62 83 79 86 93 74 24 37 55 87 78 100 79 97 72 100 97 76 68 32 36 81 80 94 98 78 100 88 76 32 24 18 13 6 7 36 58 70 58 100 85 89 98 97 99
86 84 84 99 83 33 28 67 100 100 96 100 91 100 97 87 84 100 80 36 20 19 21 21 28 44 50 35 16 9 6 6 6 5 4 5 25 33 45 73 99 98 100 99 99

GFSSW_500_rhum_114.txt.gz
RH
41 41 43 48 47 48 47 41 38 36 35 35 37 37 35 31 32 28 25 22 22 21 20 19 17 12 8 6 5 5 4 3 3 6 11 11 6 5 5 4 3 3 3 3 4
29 24 26 30 38 44 46 48 48 45 41 37 32 33 36 36 33 36 31 28 27 24 21 19 18 16 12 9 7 6 4 5 6 6 6 7 6 5 5 4 5 5 3 3 4
33 32 27 24 29 38 40 47 50 47 48 46 42 42 43 38 37 36 33 32 33 32 29 25 20 16 14 14 11 9 5 7 7 7 4 6 6 5 4 6 8 5 5 3 3
50 42 36 33 29 27 30 43 51 50 49 52 49 50 50 48 53 53 41 38 43 43 38 32 27 24 22 19 18 12 10 10 8 7 5 5 5 6 8 9 7 5 3 3 3
60 54 44 38 36 32 33 33 38 48 52 50 52 52 58 53 74 56 54 50 49 48 45 42 40 36 27 24 19 15 12 10 8 6 5 4 4 7 8 7 5 5 4 4 3
65 64 62 57 54 44 38 40 42 40 40 54 52 50 49 55 79 68 60 61 62 56 52 48 43 39 35 30 23 17 12 10 8 6 4 4 5 6 7 8 6 6 5 5 3
67 61 63 66 64 60 52 44 44 47 59 55 43 44 50 68 68 74 76 68 68 63 60 53 47 41 39 32 25 22 17 13 10 6 4 4 5 7 6 6 6 7 7 5 3
68 67 71 72 67 69 68 64 56 53 52 54 56 54 48 75 81 78 75 88 83 79 67 57 51 46 44 40 35 26 21 18 10 7 5 5 9 10 9 10 12 8 6 4 3
54 52 54 59 60 57 65 63 59 53 52 55 56 54 51 64 84 90 85 91 93 95 88 71 66 58 47 46 41 30 24 13 8 7 8 6 6 7 10 11 8 6 5 3 3
48 47 47 46 55 61 60 55 49 43 48 57 60 56 64 70 82 96 92 97 100 98 97 94 84 70 57 53 58 24 14 14 10 8 10 8 6 7 9 8 8 7 6 7 6
41 49 50 50 50 50 52 55 56 50 50 56 64 63 72 96 82 96 99 97 97 96 95 99 89 69 72 50 26 32 21 23 15 8 9 8 7 8 8 9 11 9 7 6 4
43 43 41 39 42 42 45 50 52 50 48 70 72 71 76 89 66 100 95 95 97 99 97 90 70 80 73 90 95 86 69 52 39 19 14 11 10 12 10 10 11 8 6 5 5
40 44 47 40 43 41 42 38 40 39 42 42 77 84 73 80 71 97 91 95 98 97 100 95 88 92 79 30 31 50 36 28 23 15 14 24 37 14 11 12 12 10 7 6 5
35 31 25 24 14 9 8 9 9 10 18 17 20 37 82 81 92 97 98 91 95 98 100 85 90 92 99 86 88 95 65 24 17 17 15 13 23 15 14 13 13 11 8 6 5
11 6 3 2 2 2 2 2 2 2 3 4 11 17 28 63 79 96 97 98 99 100 100 81 87 98 96 87 43 59 29 50 52 39 34 22 15 20 16 17 12 8 6 5 4
2 2 2 2 2 2 2 2 2 2 2 2 2 3 7 22 64 83 100 98 98 97 98 94 91 85 92 89 90 82 47 24 23 24 27 27 20 22 18 15 13 8 6 4 3
2 3 3 3 3 2 2 3 3 2 3 2 2 2 3 3 28 69 84 97 100 95 92 97 99 100 88 82 84 91 87 82 76 43 36 26 24 27 18 15 12 10 5 3 3
4 4 3 4 4 4 4 4 3 3 2 2 2 2 2 2 9 72 73 73 74 95 89 89 86 95 94 92 84 80 56 40 33 43 45 47 32 16 15 12 11 9 6 4 3
4 4 4 5 5 5 4 4 3 3 3 3 2 2 3 3 7 41 88 68 61 57 71 94 93 79 80 58 46 42 34 33 33 39 33 26 21 21 12 11 9 8 5 3 3
6 6 6 5 5 4 4 4 4 5 5 5 5 5 5 6 6 18 51 73 73 53 45 56 70 82 73 79 74 64 58 54 50 37 30 36 33 14 12 10 8 5 4 4 3
7 6 6 5 4 4 8 13 10 7 8 8 8 9 12 12 12 11 20 50 65 100 69 48 61 76 90 85 77 72 65 61 58 51 44 42 28 17 11 8 6 4 5 5 5
7 6 6 5 5 17 34 44 38 29 18 14 13 15 22 20 15 14 14 29 66 99 100 98 55 66 100 100 100 96 78 76 54 46 45 33 20 13 10 9 7 5 20 15 26
7 7 6 6 19 42 50 55 60 52 53 31 25 26 28 26 21 20 17 17 19 74 99 100 98 87 100 100 100 86 64 83 78 47 54 51 18 50 44 53 41 22 24 27 74
9 8 7 11 44 58 56 59 73 73 64 73 45 41 36 28 42 17 30 30 17 17 62 100 100 100 99 100 99 81 95 100 94 39 47 39 31 18 25 78 85 62 32 28 69
11 10 9 28 66 67 64 71 77 62 50 68 63 49 49 56 61 53 61 80 78 42 26 98 94 100 100 100 99 82 100 96 70 47 69 39 33 32 18 74 89 76 56 23 96
13 13 11 71 80 71 56 76 45 33 74 95 79 99 85 94 59 100 100 100 98 85 58 28 73 100 74 100 99 94 83 72 40 34 46 32 20 16 22 49 79 78 67 31 99
15 15 16 94 76 32 58 65 54 99 99 100 94 100 100 100 75 68 100 99 84 91 91 58 24 50 77 78 78 84 60 39 22 25 25 11 8 7 13 38 70 74 98 61 99

GFSSW_500_rhum_117.txt.gz
RH
35 40 44 42 39 34 32 32 31 32 31 34 36 35 35 33 38 40 34 30 28 25 25 25 23 22 19 16 13 9 5 3 4 10 12 7 4 3 4 4 5 5 4 3 3
38 33 32 31 31 29 25 24 23 24 26 30 37 40 40 38 35 41 40 40 36 33 29 27 25 24 21 18 15 13 6 5 6 13 16 10 6 4 3 4 5 6 5 5 5
50 50 47 46 46 43 39 36 35 29 26 25 30 40 44 37 43 41 42 51 47 43 37 33 31 29 24 21 18 15 11 12 8 14 14 12 8 7 4 4 5 5 7 8 6
56 51 50 48 48 51 51 50 48 39 32 29 28 35 39 48 51 60 56 57 62 61 56 48 44 37 31 28 24 18 14 14 13 14 14 12 9 7 6 5 7 6 9 9 7
56 55 54 51 48 49 54 54 46 48 44 34 34 33 36 39 63 61 59 58 60 66 68 61 54 50 45 41 36 29 24 22 19 16 15 14 11 9 7 7 7 9 9 8 7
59 51 52 51 56 61 61 59 56 57 56 54 44 44 42 42 58 60 67 65 66 66 69 70 68 58 48 48 43 38 35 32 25 19 14 12 10 8 7 12 7 6 8 6 4
61 56 47 46 51 55 58 58 59 64 61 58 53 47 42 53 68 71 62 66 70 73 74 73 71 64 54 48 47 44 39 35 30 22 15 11 9 7 6 9 10 8 7 7 7
61 55 50 53 54 51 49 48 49 54 61 58 55 51 47 49 60 66 72 78 73 66 81 90 81 71 66 60 55 47 41 38 32 22 17 14 16 11 7 6 9 8 7 6 9
66 60 53 52 53 47 41 41 38 42 50 51 53 49 48 50 54 54 57 66 82 80 92 93 86 82 77 69 61 55 47 37 31 24 19 18 18 12 9 9 10 10 10 14 12
61 57 59 56 47 36 30 29 29 30 38 38 41 41 43 42 39 48 57 68 86 93 96 100 95 73 73 83 67 58 47 38 34 24 19 23 35 19 14 10 9 13 13 12 7
58 55 53 43 37 32 35 35 34 34 38 40 42 34 41 38 38 51 56 65 85 90 98 99 95 70 80 91 97 87 71 68 64 50 24 20 21 18 8 9 10 11 11 9 8
59 52 45 40 34 29 26 25 25 24 27 32 31 32 32 41 52 71 66 66 83 89 100 94 78 99 100 98 93 96 96 75 39 30 38 34 35 19 9 8 9 9 8 8 10
41 36 32 31 29 27 24 21 22 21 20 19 17 21 25 29 34 49 84 80 88 100 100 100 91 100 98 98 95 98 94 85 83 57 43 45 40 18 14 10 10 10 9 9 18
29 29 29 27 22 17 13 11 9 7 7 6 5 5 6 10 17 23 46 83 97 100 100 87 89 99 99 96 94 97 83 70 42 71 79 72 50 45 40 36 16 11 10 21 18
22 16 12 6 3 2 2 2 2 2 2 2 2 2 3 3 5 20 35 60 96 96 98 75 91 100 97 94 100 88 100 67 62 85 83 58 49 38 27 19 18 21 18 14 14
5 3 2 2 2 2 2 2 2 2 2 2 2 2 2 2 2 3 13 38 61 88 97 92 100 98 97 100 99 100 100 100 88 64 78 69 58 40 33 31 20 16 16 16 16
2 2 2 2 2 2 2 3 3 3 3 2 2 2 2 2 2 2 7 34 51 57 74 96 99 100 100 98 100 99 99 96 92 80 67 49 35 40 43 44 34 23 18 16 14
2 2 2 2 3 3 3 4 4 3 3 2 2 2 2 2 3 3 3 10 48 57 82 100 100 98 100 98 100 100 95 97 92 92 91 73 46 47 41 38 34 27 26 17 14
3 3 3 4 4 5 5 4 3 3 3 3 3 4 4 4 4 3 4 8 66 89 96 95 100 100 100 100 100 98 98 92 92 89 79 70 66 66 60 46 39 43 23 16 12
5 4 5 6 5 5 4 4 4 6 10 13 14 14 9 5 5 7 7 8 28 90 100 97 91 100 100 100 100 100 100 100 99 97 87 71 61 54 48 47 48 31 29 29 14
6 6 6 6 5 5 4 4 10 26 33 34 31 26 23 10 7 8 15 15 10 19 74 98 98 95 100 100 100 100 100 100 99 94 89 75 65 57 51 51 43 36 37 22 13
8 7 7 6 6 5 5 9 30 45 50 40 41 45 39 26 13 10 19 20 17 12 18 60 89 100 99 80 100 100 100 100 100 95 94 93 73 65 59 53 47 42 36 22 11
9 8 8 7 7 6 6 20 47 50 44 37 58 65 63 53 27 18 22 22 18 17 14 17 52 86 100 100 100 96 100 99 98 100 94 86 62 68 64 56 48 36 27 15 10
10 9 9 8 8 7 8 41 56 47 23 36 54 64 63 70 51 26 27 24 21 21 22 59 39 60 96 100 100 100 100 100 94 100 99 74 58 58 46 35 27 22 19 14 14
12 10 11 10 9 9 19 51 42 19 38 42 37 48 60 74 90 88 41 62 62 79 57 76 50 76 97 99 100 100 87 84 81 90 85 62 54 46 54 37 26 24 22 13 15
13 12 12 12 10 16 51 32 16 31 48 55 79 100 100 100 100 66 100 83 84 82 83 89 62 41 72 100 94 100 100 100 100 100 82 72 61 63 59 54 42 20 12 10 10
14 14 15 15 12 50 29 13 27 57 77 86 100 80 100 92 81 83 84 83 84 85 85 76 80 49 24 76 100 82 76 92 92 86 64 66 47 40 33 34 24 14 12 16 59

GFSSW_500_rhum_120.txt.gz
RH
27 27 30 33 33 33 34 34 33 30 27 25 26 27 26 32 37 34 35 37 39 36 29 25 22 22 20 17 18 18 12 10 11 12 16 12 6 4 3 3 3 3 4 5 6
48 46 46 46 41 38 40 39 35 36 38 37 36 33 25 24 32 42 41 41 38 39 38 34 30 26 24 21 19 19 15 13 15 16 18 15 14 7 4 3 3 3 4 4 5
54 52 48 45 44 43 40 41 38 35 34 35 38 36 36 31 26 34 40 47 45 40 40 41 38 35 31 28 23 22 16 19 14 21 19 14 13 13 9 8 7 6 5 4 5
49 42 42 42 40 36 33 31 28 27 27 27 31 38 41 42 36 36 39 42 51 56 47 49 49 46 41 34 33 26 23 20 17 18 19 17 15 10 10 11 12 9 7 4 4
45 49 49 44 39 38 35 30 29 28 29 28 33 40 45 47 45 37 36 36 40 50 64 65 67 66 55 53 45 36 33 28 26 22 21 19 16 15 14 12 14 11 8 6 5
45 51 47 49 45 46 43 41 36 37 32 31 35 35 37 50 57 56 49 43 48 49 52 61 66 73 59 51 51 51 44 41 39 36 30 26 24 20 17 18 14 11 8 6 6
55 52 50 54 50 46 37 39 44 46 46 43 40 38 41 50 51 58 56 55 53 52 57 62 69 70 69 71 61 60 50 50 45 42 40 33 29 22 18 17 15 12 9 7 7
58 57 58 56 45 38 35 41 45 48 49 42 37 36 37 48 57 56 58 59 54 52 59 69 72 71 68 70 69 70 64 57 54 47 44 38 30 28 22 15 12 9 8 8 9
45 59 60 48 44 46 45 46 47 46 38 30 26 24 25 30 40 46 48 52 56 59 61 67 75 78 75 75 71 68 66 68 62 53 47 39 34 30 24 20 17 13 9 7 12
61 56 49 51 48 48 44 37 37 36 29 23 21 20 19 21 30 32 29 33 44 48 54 67 88 77 73 81 66 83 76 83 81 60 51 41 36 30 28 22 18 16 12 11 8
57 53 49 43 38 37 36 34 34 32 25 22 20 17 18 22 25 27 25 28 39 45 57 65 79 54 97 93 98 100 89 77 80 79 63 41 33 32 29 24 23 16 14 12 14
62 51 42 38 37 33 30 30 27 25 25 22 22 21 20 20 22 25 30 31 38 47 72 76 52 86 100 98 100 96 93 84 93 86 75 62 50 34 30 23 15 16 25 51 19
48 45 41 36 32 26 25 23 20 21 16 14 12 10 8 8 9 11 13 17 28 45 81 79 76 95 100 100 96 94 92 99 97 97 94 86 70 54 54 46 26 17 12 11 11
49 43 37 29 24 20 18 14 11 7 5 5 3 3 4 3 3 3 4 5 12 21 32 48 92 91 100 93 100 94 100 100 99 96 85 86 63 58 56 41 33 22 17 13 10
47 38 27 23 17 12 7 5 4 3 3 4 2 2 2 2 2 2 2 3 3 6 18 60 83 100 96 89 100 80 100 98 98 95 99 85 84 90 71 68 47 40 33 21 14
34 25 19 12 4 3 2 2 2 2 2 2 2 2 2 2 2 2 2 2 2 2 3 13 67 92 98 100 100 99 100 100 99 96 83 74 56 68 66 59 64 55 45 32 25
20 15 6 4 3 2 2 2 2 2 2 2 2 2 2 2 2 2 2 2 2 2 3 4 12 60 100 97 100 99 100 100 100 100 65 94 64 62 76 72 64 50 30 42 46
10 2 3 2 2 2 2 2 3 3 3 3 3 3 2 2 2 3 3 3 2 2 2 2 34 32 47 95 100 100 100 100 98 100 100 100 82 76 64 58 59 54 52 45 38
2 2 2 2 3 3 3 4 4 3 3 3 3 3 5 8 8 7 8 5 4 4 3 3 21 77 60 95 100 98 93 93 100 98 97 100 100 97 83 74 69 57 40 76 79
2 2 3 4 4 4 4 4 4 4 4 4 4 8 17 18 14 13 15 9 7 7 6 7 8 80 100 100 94 92 100 100 99 98 100 100 100 100 84 71 67 66 63 59 50
3 4 5 5 5 5 5 5 5 5 4 5 15 24 25 19 9 26 24 14 11 14 14 12 10 28 100 99 100 100 96 96 100 99 100 100 100 100 97 83 73 68 59 54 50
5 7 6 6 7 6 7 6 6 5 5 14 29 31 26 14 11 40 37 23 16 18 21 22 16 55 54 89 100 100 100 100 100 99 99 100 100 100 97 94 86 72 57 51 46
8 8 7 7 8 8 8 7 6 5 15 33 34 20 13 18 35 42 51 37 24 23 38 57 39 72 94 58 82 98 99 100 100 100 95 100 100 95 99 99 87 70 60 53 49
8 9 9 9 9 9 8 7 6 18 30 18 12 17 28 36 62 70 77 71 34 26 19 36 55 84 91 100 100 90 100 97 91 89 100 83 100 98 86 77 61 59 55 50 47
10 11 10 11 11 10 9 7 14 26 14 12 30 76 87 93 97 94 93 78 73 53 45 45 73 94 63 53 82 100 89 100 99 100 73 63 74 71 73 69 62 57 50 44 41
12 14 13 13 12 11 10 13 28 13 15 32 70 69 82 89 100 98 91 91 80 76 82 83 76 72 59 40 52 68 87 100 95 100 100 94 65 56 67 56 47 48 41 39 38
14 16 14 13 12 13 10 25 16 16 20 59 99 100 75 96 88 93 60 60 58 70 64 62 68 76 87 96 49 65 59 93 100 84 91 93 79 52 51 57 45 38 34 35 35

GFSSW_500_rhum_123.txt.gz
RH
35 33 33 28 28 30 34 33 32 34 34 34 34 34 32 32 28 24 22 28 36 34 34 39 38 32 25 21 25 23 19 13 16 20 20 28 10 9 6 4 2 3 6 6 3
52 54 52 45 41 40 40 37 38 37 35 33 32 30 27 28 32 37 35 27 23 30 38 38 38 39 36 29 23 23 21 18 24 25 27 25 14 14 9 6 4 2 4 4 4
54 56 56 51 48 42 37 34 34 32 30 30 29 28 25 24 30 21 35 36 33 27 30 39 43 38 37 39 34 27 22 29 27 28 24 26 20 16 11 11 9 7 5 5 4
57 52 47 46 46 41 40 38 35 28 27 25 24 21 21 24 36 19 32 38 37 35 33 36 39 45 43 39 41 35 31 30 30 31 21 27 25 19 16 12 12 11 9 8 6
61 57 50 44 44 42 40 35 29 29 24 26 23 20 19 21 27 22 26 27 36 44 41 38 40 49 45 53 50 41 42 38 34 32 30 30 26 24 20 19 15 13 12 9 9
66 64 55 48 33 38 38 36 33 29 33 30 25 20 19 25 22 32 32 32 35 41 54 54 43 43 48 49 54 65 58 54 53 42 36 36 33 32 26 24 19 17 17 12 10
62 63 60 54 33 27 26 32 34 31 28 27 26 26 28 31 29 35 35 36 38 43 52 61 61 56 52 58 54 57 61 64 54 61 54 46 41 41 37 33 28 24 20 17 14
65 58 53 54 42 40 38 39 39 33 32 32 33 35 37 34 32 28 28 29 32 48 52 61 59 58 59 61 57 59 62 64 67 76 69 69 41 48 47 40 34 27 22 19 17
54 58 56 51 53 50 42 46 42 39 36 33 32 30 31 29 27 24 22 21 23 34 40 47 49 54 61 64 67 65 63 77 80 84 83 73 59 59 54 45 38 33 27 21 15
50 62 63 60 60 53 47 44 39 36 34 30 27 29 24 22 21 21 17 19 24 26 30 36 40 41 52 69 54 87 95 96 87 89 99 86 76 68 57 48 42 35 30 25 20
53 66 69 68 63 57 49 44 41 35 28 25 21 20 18 19 17 15 16 18 18 22 26 27 33 34 59 74 72 100 97 90 93 100 100 95 86 78 61 61 50 36 30 27 21
76 64 71 73 64 56 47 37 30 26 23 21 20 18 18 17 15 13 13 13 13 16 19 24 22 49 72 78 85 100 100 77 97 100 98 96 92 92 81 69 52 38 31 25 22
87 86 78 69 57 46 35 30 28 26 23 20 16 12 10 8 6 6 6 6 6 6 8 14 22 36 46 68 88 100 97 94 100 100 89 87 79 90 92 87 67 39 30 22 21
91 92 74 57 45 36 31 28 22 18 11 12 9 6 6 5 4 3 3 3 3 2 3 4 6 17 32 31 96 78 97 100 98 100 74 100 73 94 97 91 88 64 45 38 28
92 74 59 48 42 35 26 22 16 9 4 8 7 5 4 3 2 2 2 2 2 2 2 3 3 5 10 34 100 59 100 99 96 95 91 88 90 81 100 90 89 98 61 40 41
84 70 57 49 37 27 22 13 10 6 4 6 5 4 3 2 2 2 2 2 2 2 2 2 2 2 2 12 65 83 100 100 100 100 97 68 100 88 100 98 100 86 82 86 69
84 61 49 34 22 20 11 8 5 4 5 4 3 2 2 2 2 2 2 2 2 2 2 2 25 75 87 13 12 58 100 100 100 94 55 94 100 81 100 100 100 95 70 86 94
82 55 33 16 16 7 5 3 2 3 2 2 2 2 2 2 2 3 2 3 3 6 3 4 4 87 76 90 89 90 66 94 99 100 90 100 97 90 100 91 94 95 89 69 74
78 28 11 10 4 3 3 2 3 3 3 3 3 3 4 3 3 4 4 8 9 8 14 56 35 100 98 99 99 95 49 81 100 100 99 92 100 98 96 78 86 99 87 73 67
18 7 7 3 2 2 3 3 3 3 3 3 4 4 4 3 5 11 17 19 15 14 13 28 100 100 99 95 100 97 50 97 100 97 88 100 100 100 85 86 100 96 84 85 95
7 9 5 3 3 4 4 4 4 4 4 4 4 4 4 9 19 23 20 19 57 23 17 19 82 91 100 98 93 89 100 96 96 96 99 100 98 100 100 92 99 95 100 99 79
7 4 5 3 3 4 4 4 4 5 4 4 4 9 19 19 15 12 13 79 100 47 38 79 99 100 100 100 94 58 100 100 100 89 98 100 100 96 97 100 96 94 98 95 80
3 4 4 4 4 5 5 5 5 5 5 5 13 17 14 13 15 33 36 83 42 45 30 84 89 100 100 100 96 68 95 100 100 100 100 100 97 100 100 100 100 100 90 78 83
4 5 5 5 6 6 6 5 5 6 5 12 16 14 22 92 90 86 90 93 100 60 26 25 48 61 100 99 100 100 100 99 99 100 100 100 100 99 99 100 100 95 96 85 63
5 6 6 6 8 7 6 6 6 6 10 17 15 24 70 69 78 96 100 100 69 70 49 37 77 98 97 24 100 100 100 100 98 98 97 100 100 100 100 100 100 90 78 64 49
5 6 6 7 10 8 8 7 7 8 18 17 15 32 58 79 89 92 83 80 100 100 100 100 100 95 100 100 100 82 100 100 100 100 97 100 96 100 100 100 83 69 54 45 45
6 6 8 11 12 10 8 7 7 17 18 19 22 54 68 72 65 75 71 65 60 59 74 99 92 94 79 100 96 88 29 69 99 100 100 100 89 100 100 90 67 55 46 41 37

GFSSW_500_rhum_129.txt.gz
RH
46 46 49 43 33 28 28 28 26 24 21 21 20 21 23 28 29 24 26 28 31 29 28 28 28 27 24 24 24 27 22 20 24 28 24 26 29 48 42 49 44 27 20 13 9
52 50 56 58 53 48 41 44 47 47 39 26 24 30 32 32 28 24 23 24 24 25 23 21 21 21 23 27 30 28 22 22 32 35 32 30 32 35 31 42 53 37 36 22 13
54 52 59 60 59 59 55 54 53 54 52 46 40 41 38 30 28 23 23 22 21 20 20 20 21 23 22 26 30 33 22 29 32 38 39 37 33 35 34 29 52 45 32 31 18
39 65 70 72 67 57 57 55 57 46 43 44 43 39 33 29 29 21 23 22 24 21 22 20 19 18 16 17 29 28 31 30 29 39 43 42 42 37 34 33 33 31 34 28 27
52 48 59 69 86 66 56 56 54 47 42 32 31 31 32 32 28 24 20 22 20 16 14 18 21 22 21 18 19 20 32 38 35 35 49 53 45 43 40 42 38 37 35 34 28
66 66 54 60 65 67 74 69 60 55 50 45 31 25 22 22 19 18 18 18 16 12 12 16 18 20 14 19 21 30 29 32 39 40 40 48 45 55 45 61 49 46 43 40 36
62 69 80 67 71 74 82 85 69 50 45 41 33 25 22 22 19 19 18 18 14 13 16 18 21 21 20 20 24 25 24 28 35 54 52 57 41 47 68 73 76 68 58 53 48
64 72 84 66 64 76 84 94 82 76 60 52 41 31 28 24 22 20 21 20 16 15 17 19 21 21 23 23 21 22 23 20 27 45 52 94 46 56 58 74 90 96 83 72 66
82 81 84 77 66 68 71 77 61 56 79 59 53 43 33 29 26 25 25 22 20 18 19 19 19 17 17 16 16 19 18 20 17 45 61 97 76 62 79 86 77 73 86 91 77
96 84 85 89 88 73 66 60 65 64 49 48 45 34 30 29 28 26 28 24 21 19 16 15 12 12 13 13 11 14 15 16 13 27 72 81 99 40 65 78 78 66 87 90 85
95 93 87 88 82 80 65 63 66 71 53 43 41 34 35 39 34 28 25 20 17 15 14 12 11 12 12 11 11 12 15 12 13 16 43 92 90 55 58 73 89 82 91 80 87
97 96 98 82 70 75 63 60 63 70 60 55 49 45 45 42 30 24 20 17 14 12 11 10 9 10 10 10 9 10 11 11 12 17 35 65 92 29 46 67 89 90 84 77 80
96 95 89 84 80 78 81 75 70 64 60 66 59 53 45 32 24 17 15 11 10 10 9 9 7 7 6 4 3 4 4 4 7 10 24 53 58 22 23 49 83 90 100 96 95
97 100 94 94 83 76 78 84 90 78 78 60 53 42 32 24 19 14 12 10 8 7 7 6 5 5 4 4 3 3 9 18 6 6 5 48 31 13 19 25 58 79 95 99 100
70 98 94 86 82 81 90 94 97 91 66 47 45 36 26 18 15 12 10 9 8 8 8 5 6 5 4 3 2 2 2 2 4 5 14 3 91 3 14 17 29 63 83 100 100
78 95 95 90 89 94 94 96 95 78 56 48 38 29 22 17 12 10 9 8 7 7 6 6 5 4 3 2 2 2 2 2 4 4 81 2 38 2 8 15 45 60 71 94 96
76 85 84 93 99 95 92 93 75 62 54 43 31 20 12 11 10 10 8 6 5 6 5 4 3 2 2 2 2 3 6 5 50 40 24 27 28 6 11 25 53 69 89 85 89
87 82 76 94 89 90 95 87 79 59 36 25 15 11 9 12 12 8 6 6 3 3 3 3 3 3 3 10 5 3 31 62 100 86 69 72 50 11 18 27 35 92 99 86 96
100 98 100 98 97 100 88 84 50 28 19 11 9 9 7 9 9 8 4 3 2 2 2 2 2 2 5 10 16 7 40 84 80 47 96 55 62 32 89 62 56 94 90 85 86
100 100 100 100 100 96 88 80 44 16 10 11 10 11 6 4 4 2 2 3 3 3 3 4 4 3 3 7 17 34 19 86 96 100 100 90 63 56 88 100 80 98 99 84 91
100 100 100 100 100 94 65 11 8 9 8 12 10 6 5 3 2 2 2 3 2 3 6 13 24 11 21 20 29 84 96 96 68 74 98 100 97 94 84 97 100 100 100 93 100
100 99 100 100 81 40 16 13 26 28 8 8 6 4 3 2 2 2 3 3 4 11 25 39 64 32 57 43 100 100 98 96 100 100 91 99 79 66 100 89 100 98 100 95 99
100 100 99 98 87 46 77 64 16 9 6 5 4 3 2 3 3 3 3 10 18 48 57 57 79 55 92 100 100 99 100 100 100 100 100 98 74 90 96 100 92 100 96 100 100
100 100 97 93 96 50 27 19 5 4 5 4 3 3 3 3 4 4 11 33 48 38 62 76 97 70 51 85 100 100 100 100 100 96 96 100 97 100 100 98 100 100 100 98 100
100 94 77 65 23 6 5 4 4 4 4 4 3 3 3 4 6 14 34 48 38 43 56 75 80 56 41 46 82 84 74 82 100 85 95 94 98 100 100 100 100 100 98 100 100
63 88 76 48 13 5 5 5 4 4 4 3 4 4 5 7 6 15 24 35 35 48 56 74 80 82 76 84 95 49 50 37 53 72 91 83 96 98 100 100 100 100 100 99 73
92 43 26 8 5 5 6 5 4 4 4 4 4 6 8 6 8 23 36 44 47 41 75 100 49 50 65 61 52 67 62 97 93 51 79 87 93 95 100 100 100 100 100 84 87

GFSSW_500_rhum_132.txt.gz
RH
47 51 54 53 47 43 43 36 29 28 29 28 27 27 25 26 24 22 25 30 29 28 29 30 30 29 27 28 26 24 19 19 20 20 23 38 32 25 25 23 28 40 44 34 18
35 38 44 52 59 57 54 51 46 41 34 32 29 31 31 29 22 23 35 34 34 32 28 26 26 25 21 23 19 19 15 15 25 25 22 30 36 35 26 25 28 32 38 36 21
46 40 37 39 50 58 65 64 57 54 50 49 47 46 47 44 32 33 36 32 30 28 25 22 20 20 20 20 22 21 14 19 20 24 25 25 28 41 37 32 35 43 36 43 37
36 47 46 39 35 51 68 69 67 61 58 55 49 44 42 44 38 36 36 30 26 22 22 22 21 22 17 17 22 13 15 14 14 21 25 25 30 34 41 38 38 34 37 35 32
30 32 41 49 44 46 54 70 72 68 62 61 46 41 41 35 35 35 33 29 26 24 25 23 22 20 16 14 16 15 17 17 14 15 18 25 27 31 38 46 48 45 40 37 33
38 40 40 48 51 56 52 58 59 64 69 66 60 51 47 43 32 28 25 23 21 18 17 18 18 16 13 12 14 15 12 11 14 15 22 36 35 45 44 58 53 56 52 49 46
66 52 51 52 51 61 64 65 64 62 65 76 68 51 49 44 42 32 30 28 23 20 21 24 22 17 12 14 14 11 10 11 15 21 23 38 14 28 47 65 78 74 69 65 61
80 58 55 72 59 63 66 73 64 68 72 79 82 69 60 55 51 46 38 33 31 21 23 24 20 17 16 16 16 14 12 9 13 21 21 45 8 29 43 55 57 82 95 95 88
94 80 77 78 71 63 75 80 71 64 69 66 64 58 61 57 65 54 49 38 33 28 23 27 22 20 18 17 16 16 12 12 10 14 18 35 13 14 27 45 42 49 74 81 78
94 95 81 86 84 82 88 94 87 81 67 63 60 60 56 44 39 39 33 28 29 27 27 25 22 18 16 14 12 12 11 9 8 10 19 16 13 8 13 23 28 35 48 64 86
97 94 95 97 93 83 81 89 88 73 66 66 63 63 60 50 34 31 32 28 31 30 26 23 19 16 14 12 11 10 9 8 8 8 9 10 12 6 7 10 10 18 30 56 63
75 94 90 93 97 88 99 95 83 68 72 64 56 52 59 57 47 35 35 36 31 26 22 18 14 12 11 10 10 9 8 8 7 7 9 9 8 5 4 7 12 14 25 51 70
45 80 69 86 96 93 90 88 90 84 80 71 66 61 58 53 51 39 40 36 30 22 18 15 10 9 9 8 7 7 6 6 6 6 5 4 6 6 7 8 9 10 25 44 62
22 34 45 41 74 84 93 85 81 79 79 70 68 66 56 48 44 38 35 27 20 16 14 11 9 8 7 7 6 6 6 6 5 5 5 6 5 4 4 3 4 6 35 56 75
12 10 10 17 32 59 78 85 82 76 78 67 65 59 52 48 42 37 31 23 19 16 14 10 10 10 10 8 6 7 6 4 3 3 3 4 3 4 3 4 4 5 18 65 85
11 12 16 18 34 54 78 84 72 73 77 67 62 55 52 48 43 37 28 22 17 14 14 14 15 11 10 7 5 5 4 3 2 2 3 2 2 2 2 2 2 9 17 33 51
9 14 26 33 81 57 46 76 75 60 57 60 59 54 53 48 40 33 21 11 13 16 16 14 10 6 7 5 4 4 4 3 3 3 9 5 33 5 4 18 22 6 9 26 65
16 26 76 94 64 66 72 67 80 62 68 73 69 62 49 48 28 19 15 14 15 14 16 16 14 6 5 4 3 4 8 18 20 7 23 56 63 20 44 61 34 19 3 21 63
19 47 100 95 93 96 93 94 93 90 77 80 71 61 60 42 24 24 20 24 16 13 11 7 6 4 3 3 12 9 12 42 77 55 44 24 19 28 55 58 52 39 19 18 40
43 100 100 100 100 100 100 97 91 84 70 69 66 57 26 25 26 23 18 19 8 4 3 3 3 2 3 4 6 53 22 21 60 73 35 71 100 78 48 65 39 99 74 54 83
65 99 100 100 100 99 98 98 91 86 79 34 16 23 30 22 14 6 4 4 3 2 2 2 3 5 12 20 17 30 66 66 54 99 79 51 98 100 89 54 43 100 93 91 85
87 100 100 100 98 96 100 94 96 75 34 15 45 68 22 6 4 3 3 2 2 2 3 8 11 17 34 84 81 88 79 100 71 100 100 96 82 76 97 95 100 100 99 100 99
100 98 100 98 100 100 99 94 66 34 71 74 51 16 5 4 3 3 2 3 3 3 8 18 37 45 51 85 70 99 100 100 100 98 100 100 100 67 58 95 98 100 100 99 100
88 94 98 99 100 99 91 88 90 75 55 15 5 4 4 3 3 3 3 4 4 9 20 49 66 60 47 49 88 98 100 100 100 100 98 99 85 100 80 73 100 98 100 100 97
98 100 100 100 100 100 98 89 48 12 7 5 4 4 3 3 3 4 4 5 9 17 44 43 61 61 83 76 70 66 92 62 49 83 68 73 96 90 98 79 100 100 100 93 100
100 99 99 100 100 99 71 26 10 5 5 4 4 3 3 4 4 5 5 13 28 32 41 45 47 45 79 71 72 75 52 46 42 67 78 67 61 66 76 98 100 100 100 100 100
100 100 100 100 56 29 29 8 6 4 4 4 4 4 4 5 5 6 12 53 75 52 37 51 66 44 64 75 73 41 86 68 91 100 89 64 54 56 57 95 99 100 99 100 100

GFSSW_500_rhum_135.txt.gz
RH
41 43 45 48 51 50 47 45 39 32 30 22 21 21 21 21 19 22 24 25 25 25 24 27 26 25 27 29 28 26 22 21 23 22 24 36 31 33 31 26 21 20 18 18 15
42 44 41 38 36 39 41 50 52 47 46 44 41 34 31 23 20 20 27 24 22 24 33 34 31 31 28 25 23 22 19 18 19 19 17 23 29 38 30 31 32 27 24 22 19
41 45 49 43 41 37 37 39 42 47 54 59 54 51 46 44 40 37 37 38 26 27 33 31 26 26 24 20 18 16 14 16 16 19 18 18 22 30 29 30 36 33 32 30 27
28 33 38 40 39 46 41 41 38 42 54 65 63 60 54 51 44 44 41 38 37 34 36 34 26 23 20 18 21 15 18 16 15 17 16 15 16 21 29 32 45 42 39 38 38
48 42 33 33 30 30 33 44 44 44 48 52 62 68 60 59 48 50 46 36 36 38 38 34 29 27 23 23 22 16 17 17 12 11 13 14 13 14 26 33 44 52 48 45 43
65 70 53 45 38 32 29 34 44 48 55 55 57 54 72 62 56 48 46 40 32 31 29 26 23 20 20 17 18 19 17 16 13 11 9 9 8 9 14 37 39 51 61 55 52
86 85 76 57 54 44 45 41 38 46 59 62 62 58 64 74 62 52 46 44 44 42 37 33 31 29 26 22 21 20 20 15 12 13 11 10 4 7 12 17 22 32 55 76 70
90 83 92 71 60 51 48 52 65 56 55 67 68 62 69 73 78 71 59 51 47 44 46 44 38 34 31 23 22 21 16 14 17 16 12 11 4 7 12 12 17 24 30 53 91
94 96 87 82 73 70 60 52 57 62 58 71 70 67 66 61 60 57 59 62 57 53 54 49 39 27 26 29 23 23 18 16 14 14 14 12 4 4 8 10 10 14 24 35 47
97 97 96 93 85 93 83 61 55 66 67 73 76 72 74 66 61 60 56 53 38 35 36 32 29 29 26 20 20 20 18 16 15 12 12 10 7 6 7 7 8 8 8 11 18
97 98 92 96 85 89 92 83 79 80 78 74 72 74 70 65 63 66 66 60 58 43 31 27 31 32 27 24 22 19 17 15 12 10 10 9 8 7 7 6 5 4 5 6 10
94 95 92 88 82 88 77 85 91 88 88 84 75 73 65 60 56 56 62 62 62 58 45 34 34 29 26 21 17 15 14 13 12 10 9 8 8 7 6 6 6 5 4 4 6
81 77 91 84 68 68 76 64 97 98 94 86 80 72 70 68 63 53 55 56 50 46 38 36 31 28 22 16 13 11 12 12 11 9 7 6 7 6 6 5 5 5 5 4 5
62 67 50 40 52 44 44 65 45 79 69 69 74 81 79 67 58 56 58 54 45 39 34 31 26 18 15 15 12 10 9 9 10 10 10 9 9 8 6 5 5 5 5 4 4
17 94 98 30 17 21 26 29 33 41 62 61 56 63 64 62 54 50 49 45 41 37 33 26 18 13 13 13 12 13 14 14 12 8 7 12 6 8 8 7 6 4 4 4 5
15 38 18 12 13 23 19 35 33 44 55 60 55 59 60 54 52 48 50 49 47 43 38 31 21 20 19 16 16 16 15 12 10 8 8 11 4 8 6 4 4 4 4 3 3
14 27 20 13 29 37 18 38 65 58 51 52 54 54 47 37 44 51 53 50 46 43 38 27 23 22 23 20 16 14 12 11 8 6 4 5 4 4 4 3 3 3 2 2 2
20 50 21 21 39 44 39 69 78 44 46 67 64 62 51 48 56 59 51 46 44 40 33 34 29 22 16 14 14 8 4 4 4 4 4 4 4 5 10 10 8 11 12 9 14
100 51 23 70 73 66 61 82 82 75 67 92 72 67 67 71 67 48 38 39 36 35 34 38 40 30 14 8 6 5 4 5 7 5 8 4 6 24 25 21 34 41 51 38 26
24 25 26 78 79 69 74 97 90 98 100 98 87 73 72 63 56 42 36 36 44 48 38 21 19 12 5 4 4 3 4 5 11 20 32 27 45 52 58 92 100 48 48 54 46
31 25 34 47 73 74 96 98 100 100 100 91 86 82 71 68 40 37 55 52 41 10 10 10 7 4 4 7 5 9 16 28 52 79 97 77 81 100 96 100 99 100 82 63 95
30 29 61 78 71 62 100 97 100 97 100 93 87 88 60 29 69 80 33 12 8 5 2 2 2 2 5 25 36 34 77 70 96 94 100 100 100 100 100 94 76 95 100 100 100
42 61 100 95 78 49 98 100 99 99 81 90 80 38 58 88 48 14 7 6 3 2 2 3 4 9 34 38 79 54 94 88 95 100 100 94 100 99 100 100 97 86 96 97 99
100 100 92 99 100 97 100 99 86 92 95 38 42 93 63 16 5 6 3 2 2 2 2 4 26 53 50 49 64 65 76 99 89 73 71 89 77 85 95 94 100 92 81 83 98
100 99 96 87 95 100 100 98 100 84 84 98 71 19 7 14 7 3 3 3 2 4 7 15 42 45 77 40 61 79 75 85 62 43 41 58 54 62 72 98 100 100 100 100 100
94 100 100 100 99 100 100 95 85 99 82 42 33 8 16 4 3 3 3 3 5 22 19 29 26 39 77 53 54 56 52 39 35 51 48 45 44 56 57 68 90 100 100 100 98
99 100 100 100 100 100 100 100 85 71 64 16 7 4 4 3 3 3 4 6 36 39 25 25 38 53 62 62 66 56 83 66 79 96 100 98 82 80 70 60 54 93 100 100 100

GFSSW_500_rhum_138.txt.gz
RH
38 34 36 32 35 36 36 43 43 40 40 43 42 42 42 33 24 19 19 20 20 21 20 20 20 20 21 25 23 22 18 22 25 25 27 30 27 27 27 26 26 26 24 22 20
38 42 39 36 34 36 36 33 35 37 37 40 45 44 45 50 46 39 33 24 21 24 26 24 18 18 22 30 28 27 24 22 19 17 18 23 21 25 20 20 29 31 29 27 27
30 31 36 34 36 38 40 37 34 34 31 32 32 34 43 53 54 54 48 39 36 36 36 38 32 23 27 30 27 24 22 20 16 19 17 15 19 21 20 18 25 30 35 32 31
24 25 27 26 26 29 33 34 33 31 31 31 34 35 45 56 57 59 61 52 45 42 40 39 40 36 32 32 31 25 23 20 17 19 15 17 16 16 15 16 30 31 36 42 38
27 25 28 26 40 44 35 27 28 26 22 27 40 42 43 47 51 54 67 61 50 47 41 37 36 38 39 37 35 32 26 24 22 18 15 16 16 15 11 16 20 23 29 37 43
34 36 39 38 55 64 57 44 29 29 24 22 39 40 43 52 52 56 58 70 60 51 48 42 35 32 31 30 27 24 22 21 20 21 22 20 18 15 10 17 12 14 20 24 38
56 57 53 48 62 70 74 63 48 46 38 30 38 40 43 48 50 56 62 70 74 63 51 46 41 39 34 34 33 32 30 28 26 23 22 21 18 13 10 10 12 10 10 18 22
72 66 62 62 70 86 78 75 61 54 52 41 49 53 49 48 47 54 65 65 72 75 68 59 48 46 47 46 45 38 32 29 28 26 21 19 15 12 11 10 10 11 10 12 20
95 82 74 82 83 96 87 81 72 57 56 46 45 52 50 52 56 55 57 62 62 61 62 57 60 60 55 53 49 46 36 24 23 25 21 19 14 13 13 12 10 10 10 9 9
97 94 82 92 95 99 95 92 78 66 66 66 54 45 50 57 60 62 66 66 65 59 56 56 56 45 39 36 35 32 29 27 25 22 20 18 16 15 14 12 10 9 8 8 7
98 96 95 97 100 100 96 97 88 70 71 87 81 70 61 64 71 66 68 64 58 54 53 55 57 55 51 47 34 28 27 24 23 21 17 17 12 13 12 11 10 10 9 7 6
96 96 90 90 96 98 96 93 92 77 71 73 81 75 66 69 62 64 61 61 54 50 52 54 51 48 55 53 49 41 32 26 24 21 19 16 11 12 12 10 8 7 7 6 6
55 68 87 90 86 82 82 84 86 80 72 62 76 98 87 90 80 67 72 68 61 57 56 60 57 52 48 44 38 33 29 26 22 19 15 16 11 12 13 10 8 7 6 6 6
17 43 99 62 29 51 60 66 59 60 66 59 56 71 65 59 58 59 72 78 71 63 56 56 56 49 38 33 30 26 22 22 21 20 18 16 14 11 14 14 13 12 10 8 6
17 31 99 18 57 65 74 62 54 43 49 44 39 43 42 45 50 49 58 61 60 56 52 46 43 40 36 33 30 28 28 26 23 21 21 17 15 11 15 16 17 16 14 11 8
20 17 15 68 98 42 98 98 34 44 54 52 28 30 34 30 26 40 47 49 52 50 49 49 47 46 41 31 23 22 26 27 29 26 26 23 20 23 23 21 17 15 15 14 13
24 20 16 98 100 36 100 99 54 26 33 37 47 53 45 45 55 51 51 58 53 49 47 48 45 38 32 31 30 32 31 34 33 31 30 28 21 17 16 11 8 8 7 7 6
27 23 20 97 85 26 84 98 43 34 36 45 70 68 60 63 66 64 66 62 58 59 54 46 43 36 32 34 40 40 34 21 19 16 14 10 6 5 6 4 4 3 3 3 3
24 22 21 21 20 17 60 97 67 21 40 49 87 100 92 90 84 81 69 56 60 59 47 47 45 40 38 39 31 16 11 9 7 6 6 4 4 4 4 6 6 7 6 10 5
19 34 20 18 24 23 62 94 41 38 52 50 73 99 97 100 93 77 70 60 58 53 46 47 49 44 21 15 11 9 6 4 7 8 11 9 11 18 39 48 80 66 69 84 88
25 58 25 60 91 98 86 66 62 61 56 52 76 100 98 100 95 82 72 64 53 56 64 56 36 17 12 6 4 4 4 5 6 38 77 70 48 90 100 99 94 86 85 100 97
32 35 46 36 60 33 23 28 31 55 64 93 98 100 100 96 87 82 76 51 73 62 27 18 14 5 4 3 3 4 12 20 35 72 89 88 65 78 88 84 98 87 100 100 100
47 56 98 65 44 30 25 23 31 74 89 99 100 100 100 97 92 54 62 76 34 19 16 9 3 3 3 7 13 17 19 51 83 72 84 72 68 73 63 59 94 100 100 100 100
73 75 100 76 100 59 39 66 92 99 100 100 100 100 100 76 48 71 63 24 14 11 4 3 2 3 7 15 24 30 51 51 63 58 64 50 38 52 50 49 100 99 100 100 100
94 72 87 100 78 80 98 100 100 100 100 100 97 90 70 73 94 64 32 19 5 3 3 3 5 7 14 24 26 28 40 81 79 74 60 41 38 36 68 50 69 97 99 100 100
100 75 83 90 93 100 100 100 100 100 95 77 86 56 89 83 54 28 8 3 3 3 3 8 13 18 32 31 29 36 51 42 54 78 61 63 92 100 95 57 49 54 82 100 100
94 84 93 100 100 100 100 100 100 96 89 85 69 93 70 63 23 4 3 3 3 4 9 18 20 26 35 33 52 56 47 75 74 93 96 100 96 97 93 83 53 42 77 86 99

GFSSW_500_rhum_141.txt.gz
RH
20 26 27 26 28 28 30 28 33 33 32 37 39 36 39 41 39 40 41 39 30 22 20 18 17 16 17 17 17 16 12 20 25 26 27 25 23 24 22 24 24 24 23 27 28
20 22 24 29 31 30 36 38 36 32 37 32 32 33 32 36 29 27 34 42 47 43 35 29 23 18 17 20 18 19 19 24 26 25 23 23 18 20 17 18 22 24 23 23 25
26 24 26 29 31 30 30 34 37 31 32 37 36 34 34 30 30 29 38 42 46 52 52 43 36 34 30 29 27 20 22 29 29 25 21 19 20 19 19 16 20 21 24 21 21
30 30 31 31 28 25 26 28 27 27 27 26 29 27 26 25 32 38 35 38 42 43 55 53 46 43 39 36 35 31 30 28 29 30 28 24 21 23 18 16 22 20 17 20 19
68 43 36 33 29 24 24 27 28 32 53 39 24 22 23 22 31 39 41 41 43 42 47 59 51 50 45 38 36 34 34 32 30 32 32 29 22 18 17 22 21 20 18 16 19
88 82 78 42 34 27 26 28 37 35 65 66 44 28 23 26 30 36 42 42 45 45 47 59 64 56 52 49 37 34 32 31 31 29 28 28 26 21 22 23 21 20 17 15 19
88 98 95 61 35 38 39 33 48 49 70 79 67 42 34 33 33 32 43 45 46 45 51 55 67 69 61 52 48 43 38 36 33 33 35 35 32 28 26 23 21 18 16 14 13
92 98 91 77 63 59 49 47 54 56 60 85 77 61 49 48 43 39 48 46 46 49 49 57 58 53 51 61 61 61 56 50 47 47 46 38 33 29 28 25 21 19 16 14 14
95 92 88 86 86 84 63 65 64 59 74 85 78 71 55 47 42 40 38 42 55 55 54 52 56 58 54 49 48 45 41 40 43 48 48 43 33 25 24 22 18 17 15 14 12
97 96 94 90 87 92 87 81 78 72 81 89 78 76 61 60 60 58 52 48 54 58 64 64 63 56 52 51 52 49 44 42 40 36 31 29 28 27 24 20 18 17 15 12 11
97 97 97 97 100 100 97 88 91 80 97 89 77 79 72 60 57 67 66 62 53 58 63 64 58 55 53 46 45 50 51 48 48 47 37 36 29 26 22 19 17 15 13 13 11
92 90 94 97 94 96 95 99 100 89 98 92 84 78 72 64 64 64 72 76 70 65 59 61 54 52 52 48 47 43 44 42 39 38 34 30 31 30 23 18 17 15 14 13 12
98 91 98 89 83 93 84 81 87 91 91 88 72 66 62 61 60 59 70 72 68 64 63 62 61 62 62 57 54 49 48 48 45 42 34 30 25 22 20 18 16 14 13 12 12
100 74 69 94 57 94 62 69 89 48 62 62 72 51 49 48 48 47 55 53 48 48 51 55 64 65 61 55 52 47 44 40 37 34 32 28 24 22 19 19 18 16 16 14 14
34 24 64 53 100 84 60 100 71 39 58 60 54 47 43 47 37 35 39 40 42 36 41 49 50 55 54 50 46 43 41 41 40 38 35 31 28 20 19 22 25 24 23 22 22
33 33 27 27 53 51 94 99 60 75 98 81 50 39 26 30 34 39 48 59 61 60 65 61 58 58 55 52 48 47 45 41 37 35 38 36 35 28 30 27 25 23 21 20 20
36 37 32 26 21 19 85 100 60 81 91 96 62 36 32 31 29 39 52 68 71 68 64 62 59 54 53 51 48 44 42 42 40 40 40 40 37 30 24 21 19 18 18 16 16
40 36 37 32 28 24 22 49 41 96 83 96 95 42 32 36 48 57 66 63 69 73 70 66 59 53 45 49 46 43 44 44 42 36 31 22 14 13 12 11 8 6 6 5 5
33 36 39 34 31 28 24 22 32 100 92 89 99 73 38 49 48 66 78 87 88 87 73 66 59 52 48 47 46 44 39 28 19 13 12 10 6 6 5 6 7 6 4 5 5
36 35 34 35 33 31 27 22 35 87 68 43 43 83 86 54 43 45 67 76 93 88 74 63 58 52 57 60 48 25 15 9 6 6 5 4 5 8 16 30 56 55 46 37 38
87 34 43 30 29 27 25 22 18 18 18 19 48 97 79 81 57 58 76 86 91 83 74 69 67 67 63 28 15 8 4 4 4 9 10 8 17 26 41 61 61 56 66 100 93
66 32 55 33 34 25 39 19 18 17 18 36 56 74 85 69 63 95 88 93 87 88 75 63 67 38 29 16 4 3 5 7 8 19 34 60 20 42 45 54 58 63 99 100 99
100 49 33 41 37 100 100 33 44 100 95 81 73 62 47 72 99 100 99 100 97 68 67 53 38 20 7 4 5 8 9 14 18 24 38 52 43 38 39 45 50 48 99 100 100
98 100 40 90 40 87 100 65 100 100 74 36 43 56 91 100 100 100 99 82 71 81 66 58 17 3 3 3 5 14 18 20 24 35 47 45 41 44 43 36 42 50 69 98 100
100 98 71 28 32 50 66 72 78 52 80 66 88 100 100 100 100 100 93 80 78 52 26 5 3 3 4 7 11 20 24 33 39 38 41 58 57 47 57 52 54 53 43 71 98
100 85 30 33 48 61 90 100 76 100 92 100 100 100 100 100 100 99 84 56 26 11 4 3 4 5 8 12 20 23 44 38 40 58 69 88 85 100 96 72 60 69 43 48 73
86 34 46 63 74 79 100 98 100 99 95 100 98 100 98 81 83 85 61 31 4 4 3 4 4 7 12 18 26 36 42 40 45 58 75 86 84 82 79 61 37 60 69 51 66